Time,TemperatureF,DewpointF,PressureIn,WindDirection,WindDirectionDegrees,WindSpeedMPH,WindSpeedGustMPH,Humidity,HourlyPrecipIn,Conditions,Clouds,dailyrainin,SoftwareType,DateUTC
2013-05-24 00:03:00,65.0,63.0,29.79,South,183,2.0,5.0,94,0.03,,,0.08,,2013-05-24 04:03:00,
2013-05-24 00:12:00,65.0,63.0,29.79,South,183,2.0,5.0,94,0.03,,,0.08,,2013-05-24 04:12:00,
2013-05-24 00:23:00,65.0,64.0,29.79,SSW,194,1.0,5.0,95,0.04,,,0.09,,2013-05-24 04:23:00,
2013-05-24 00:33:00,65.0,64.0,29.78,South,170,3.0,6.0,95,0.04,,,0.11,,2013-05-24 04:33:00,
2013-05-24 00:42:00,65.0,64.0,29.78,South,170,3.0,6.0,95,0.04,,,0.11,,2013-05-24 04:42:00,
2013-05-24 00:53:00,65.0,64.0,29.78,South,190,2.0,6.0,95,0.06,,,0.13,,2013-05-24 04:53:00,
2013-05-24 01:02:00,65.0,64.0,29.78,SSE,165,2.0,3.0,95,0.05,,,0.13,,2013-05-24 05:02:00,
2013-05-24 01:12:00,65.0,64.0,29.78,SSE,165,2.0,3.0,95,0.05,,,0.13,,2013-05-24 05:12:00,
2013-05-24 01:22:00,65.0,64.0,29.77,South,175,1.0,4.0,96,0.04,,,0.14,,2013-05-24 05:22:00,
2013-05-24 01:32:00,65.0,64.0,29.77,SW,231,2.0,5.0,96,0.04,,,0.15,,2013-05-24 05:32:00,
2013-05-24 01:42:00,65.0,64.0,29.77,SW,231,2.0,5.0,96,0.04,,,0.15,,2013-05-24 05:42:00,
2013-05-24 01:52:00,65.0,64.0,29.76,SE,146,3.0,6.0,96,0.04,,,0.16,,2013-05-24 05:52:00,
2013-05-24 02:02:00,65.0,64.0,29.75,SE,143,3.0,7.0,96,0.05,,,0.18,,2013-05-24 06:02:00,
2013-05-24 02:12:00,65.0,64.0,29.75,SE,143,3.0,7.0,96,0.05,,,0.18,,2013-05-24 06:12:00,
2013-05-24 02:21:00,65.0,64.0,29.75,SSE,161,2.0,7.0,96,0.05,,,0.19,,2013-05-24 06:21:00,
2013-05-24 02:32:00,65.0,64.0,29.75,SE,146,2.0,6.0,96,0.05,,,0.20,,2013-05-24 06:32:00,
2013-05-24 02:42:00,65.0,64.0,29.75,SE,146,2.0,6.0,96,0.05,,,0.20,,2013-05-24 06:42:00,
2013-05-24 02:52:00,65.0,64.0,29.74,SSW,198,2.0,5.0,96,0.04,,,0.21,,2013-05-24 06:52:00,
2013-05-24 03:01:00,64.0,63.0,29.73,SE,140,2.0,5.0,96,0.05,,,0.23,,2013-05-24 07:01:00,
2013-05-24 03:11:00,64.0,63.0,29.73,SE,140,2.0,5.0,96,0.05,,,0.23,,2013-05-24 07:11:00,
2013-05-24 03:22:00,64.0,63.0,29.72,South,177,2.0,5.0,96,0.10,,,0.29,,2013-05-24 07:22:00,
2013-05-24 03:32:00,64.0,63.0,29.72,SE,134,2.0,8.0,96,0.10,,,0.29,,2013-05-24 07:32:00,
2013-05-24 03:42:00,64.0,63.0,29.72,SE,134,2.0,8.0,96,0.10,,,0.29,,2013-05-24 07:42:00,
2013-05-24 03:52:00,64.0,63.0,29.71,SSE,152,1.0,3.0,96,0.10,,,0.30,,2013-05-24 07:52:00,
2013-05-24 04:02:00,64.0,63.0,29.70,SE,139,1.0,4.0,96,0.07,,,0.31,,2013-05-24 08:02:00,
2013-05-24 04:11:00,64.0,63.0,29.70,SE,139,1.0,4.0,96,0.07,,,0.31,,2013-05-24 08:11:00,
2013-05-24 04:22:00,64.0,63.0,29.70,West,261,2.0,4.0,96,0.06,,,0.33,,2013-05-24 08:22:00,
2013-05-24 04:33:00,64.0,63.0,29.69,South,172,1.0,3.0,96,0.07,,,0.36,,2013-05-24 08:33:00,
2013-05-24 04:42:00,64.0,63.0,29.69,South,172,1.0,3.0,96,0.07,,,0.36,,2013-05-24 08:42:00,
2013-05-24 04:52:00,63.0,62.0,29.67,SW,231,0.0,2.0,96,0.07,,,0.37,,2013-05-24 08:52:00,
2013-05-24 05:02:00,63.0,62.0,29.66,SW,229,0.0,2.0,96,0.08,,,0.38,,2013-05-24 09:02:00,
2013-05-24 05:11:00,63.0,62.0,29.66,SW,229,0.0,2.0,96,0.08,,,0.38,,2013-05-24 09:11:00,
2013-05-24 05:22:00,63.0,62.0,29.65,SSW,195,0.0,1.0,96,0.05,,,0.38,,2013-05-24 09:22:00,
2013-05-24 05:32:00,63.0,62.0,29.65,SSE,163,1.0,3.0,96,0.02,,,0.38,,2013-05-24 09:32:00,
2013-05-24 05:42:00,63.0,62.0,29.65,SSE,163,1.0,3.0,96,0.02,,,0.38,,2013-05-24 09:42:00,
2013-05-24 05:53:00,63.0,62.0,29.65,SSW,207,0.0,0.0,96,0.02,,,0.39,,2013-05-24 09:53:00,
2013-05-24 06:03:00,63.0,62.0,29.64,SE,143,1.0,5.0,96,0.01,,,0.39,,2013-05-24 10:03:00,
2013-05-24 06:12:00,63.0,62.0,29.64,SE,143,1.0,5.0,96,0.01,,,0.39,,2013-05-24 10:12:00,
2013-05-24 06:22:00,63.0,62.0,29.64,SE,142,1.0,3.0,96,0.01,,,0.39,,2013-05-24 10:22:00,
2013-05-24 06:33:00,63.0,62.0,29.63,SSW,193,1.0,4.0,96,0.01,,,0.39,,2013-05-24 10:33:00,
2013-05-24 06:42:00,63.0,62.0,29.63,SSW,193,1.0,4.0,96,0.01,,,0.39,,2013-05-24 10:42:00,
2013-05-24 06:52:00,63.0,62.0,29.64,SSE,159,1.0,6.0,97,0.00,,,0.39,,2013-05-24 10:52:00,
2013-05-24 07:02:00,64.0,63.0,29.64,SE,137,2.0,5.0,97,0.00,,,0.39,,2013-05-24 11:02:00,
2013-05-24 07:12:00,64.0,63.0,29.64,SE,137,2.0,5.0,97,0.00,,,0.39,,2013-05-24 11:12:00,
2013-05-24 07:22:00,64.0,63.0,29.65,SSE,163,2.0,4.0,97,0.00,,,0.39,,2013-05-24 11:22:00,
2013-05-24 07:32:00,64.0,63.0,29.65,SSW,205,2.0,5.0,97,0.00,,,0.38,,2013-05-24 11:32:00,
2013-05-24 07:42:00,64.0,63.0,29.65,SSW,205,2.0,5.0,97,0.00,,,0.38,,2013-05-24 11:42:00,
2013-05-24 07:52:00,65.0,64.0,29.65,South,176,2.0,5.0,97,0.00,,,0.38,,2013-05-24 11:52:00,
2013-05-24 08:02:00,65.0,64.0,29.65,SW,222,3.0,8.0,96,0.00,,,0.38,,2013-05-24 12:02:00,
2013-05-24 08:11:00,65.0,64.0,29.65,SW,222,3.0,8.0,96,0.00,,,0.38,,2013-05-24 12:11:00,
2013-05-24 08:22:00,65.0,64.0,29.66,South,185,2.0,7.0,96,0.00,,,0.38,,2013-05-24 12:22:00,
2013-05-24 08:32:00,65.0,64.0,29.66,SSW,197,2.0,6.0,96,0.00,,,0.38,,2013-05-24 12:32:00,
2013-05-24 08:42:00,65.0,64.0,29.66,SSW,197,2.0,6.0,96,0.00,,,0.38,,2013-05-24 12:42:00,
2013-05-24 08:52:00,65.0,64.0,29.67,WSW,253,2.0,4.0,96,0.00,,,0.38,,2013-05-24 12:52:00,
2013-05-24 09:02:00,65.0,64.0,29.68,WSW,256,3.0,10.0,96,0.00,,,0.38,,2013-05-24 13:02:00,
2013-05-24 09:11:00,65.0,64.0,29.68,WSW,256,3.0,10.0,96,0.00,,,0.38,,2013-05-24 13:11:00,
2013-05-24 09:21:00,65.0,64.0,29.69,WSW,244,2.0,6.0,96,0.00,,,0.38,,2013-05-24 13:21:00,
2013-05-24 09:32:00,66.0,65.0,29.68,SE,132,3.0,7.0,95,0.00,,,0.38,,2013-05-24 13:32:00,
2013-05-24 09:42:00,66.0,65.0,29.68,SE,132,3.0,7.0,95,0.00,,,0.38,,2013-05-24 13:42:00,
2013-05-24 09:52:00,66.0,65.0,29.69,WSW,255,2.0,7.0,95,0.00,,,0.38,,2013-05-24 13:52:00,
2013-05-24 10:01:00,66.0,65.0,29.70,SW,229,2.0,6.0,95,0.00,,,0.38,,2013-05-24 14:01:00,
2013-05-24 10:11:00,66.0,65.0,29.70,SW,229,2.0,6.0,95,0.00,,,0.38,,2013-05-24 14:11:00,
2013-05-24 10:21:00,66.0,65.0,29.70,SSW,208,0.0,5.0,95,0.00,,,0.38,,2013-05-24 14:21:00,
2013-05-24 10:32:00,66.0,65.0,29.70,WSW,248,1.0,3.0,95,0.00,,,0.38,,2013-05-24 14:32:00,
2013-05-24 10:42:00,66.0,65.0,29.70,WSW,248,1.0,3.0,95,0.00,,,0.38,,2013-05-24 14:42:00,
2013-05-24 10:52:00,67.0,66.0,29.70,SW,214,0.0,2.0,95,0.00,,,0.38,,2013-05-24 14:52:00,
2013-05-24 11:02:00,67.0,65.0,29.70,SSW,195,1.0,6.0,94,0.00,,,0.38,,2013-05-24 15:02:00,
2013-05-24 11:11:00,67.0,65.0,29.70,SSW,195,1.0,6.0,94,0.00,,,0.38,,2013-05-24 15:11:00,
2013-05-24 11:21:00,67.0,65.0,29.70,SSE,163,1.0,4.0,94,0.00,,,0.38,,2013-05-24 15:21:00,
2013-05-24 11:33:00,68.0,66.0,29.70,South,188,1.0,4.0,93,0.00,,,0.38,,2013-05-24 15:33:00,
2013-05-24 11:43:00,68.0,66.0,29.70,South,188,1.0,4.0,93,0.00,,,0.38,,2013-05-24 15:43:00,
2013-05-24 11:52:00,68.0,66.0,29.70,SSW,201,3.0,6.0,92,0.00,,,0.38,,2013-05-24 15:52:00,
2013-05-24 12:03:00,68.0,65.0,29.70,SW,235,2.0,5.0,91,0.00,,,0.38,,2013-05-24 16:03:00,
2013-05-24 12:13:00,68.0,65.0,29.70,SW,235,2.0,5.0,91,0.00,,,0.38,,2013-05-24 16:13:00,
2013-05-24 12:22:00,69.0,66.0,29.70,South,188,1.0,4.0,91,0.00,,,0.38,,2013-05-24 16:22:00,
2013-05-24 12:32:00,69.0,66.0,29.70,SW,222,1.0,3.0,90,0.00,,,0.38,,2013-05-24 16:32:00,
2013-05-24 12:42:00,69.0,66.0,29.70,SW,222,1.0,3.0,90,0.00,,,0.38,,2013-05-24 16:42:00,
2013-05-24 12:52:00,69.0,66.0,29.70,South,176,1.0,3.0,91,0.00,,,0.38,,2013-05-24 16:52:00,
2013-05-24 13:02:00,69.0,67.0,29.70,SSW,195,1.0,2.0,92,0.00,,,0.38,,2013-05-24 17:02:00,
2013-05-24 13:12:00,69.0,67.0,29.70,SSW,195,1.0,2.0,92,0.00,,,0.38,,2013-05-24 17:12:00,
2013-05-24 13:22:00,68.0,66.0,29.70,SSE,163,0.0,1.0,93,0.02,,,0.40,,2013-05-24 17:22:00,
2013-05-24 13:32:00,68.0,66.0,29.70,SSE,166,1.0,2.0,93,0.03,,,0.41,,2013-05-24 17:32:00,
2013-05-24 13:42:00,68.0,66.0,29.70,SSE,166,1.0,2.0,93,0.03,,,0.41,,2013-05-24 17:42:00,
2013-05-24 13:52:00,68.0,66.0,29.69,WSW,240,0.0,2.0,94,0.03,,,0.41,,2013-05-24 17:52:00,
2013-05-24 14:01:00,69.0,67.0,29.69,South,180,0.0,1.0,94,0.03,,,0.41,,2013-05-24 18:01:00,
2013-05-24 14:12:00,69.0,67.0,29.69,South,180,0.0,1.0,94,0.03,,,0.41,,2013-05-24 18:12:00,
2013-05-24 14:22:00,69.0,67.0,29.69,SSE,156,0.0,2.0,93,0.02,,,0.41,,2013-05-24 18:22:00,
2013-05-24 14:32:00,69.0,67.0,29.69,SW,224,1.0,4.0,94,0.00,,,0.41,,2013-05-24 18:32:00,
2013-05-24 14:42:00,69.0,67.0,29.69,SW,224,1.0,4.0,94,0.00,,,0.41,,2013-05-24 18:42:00,
2013-05-24 14:51:00,69.0,67.0,29.69,NNE,16,1.0,2.0,94,0.00,,,0.41,,2013-05-24 18:51:00,
2013-05-24 15:01:00,69.0,67.0,29.69,South,186,1.0,2.0,93,0.00,,,0.41,,2013-05-24 19:01:00,
2013-05-24 15:11:00,69.0,67.0,29.69,South,186,1.0,2.0,93,0.00,,,0.41,,2013-05-24 19:11:00,
2013-05-24 15:21:00,69.0,67.0,29.67,SSW,207,1.0,1.0,93,0.00,,,0.41,,2013-05-24 19:21:00,
2013-05-24 15:32:00,69.0,67.0,29.68,SW,219,2.0,3.0,92,0.00,,,0.41,,2013-05-24 19:32:00,
2013-05-24 15:42:00,69.0,67.0,29.68,SW,219,2.0,3.0,92,0.00,,,0.41,,2013-05-24 19:42:00,
2013-05-24 15:52:00,70.0,67.0,29.69,NW,315,1.0,3.0,91,0.00,,,0.41,,2013-05-24 19:52:00,
2013-05-24 16:02:00,67.0,63.0,29.69,NW,305,3.0,11.0,88,0.00,,,0.41,,2013-05-24 20:02:00,
2013-05-24 16:12:00,67.0,63.0,29.69,NW,305,3.0,11.0,88,0.00,,,0.41,,2013-05-24 20:12:00,
2013-05-24 16:22:00,64.0,61.0,29.69,NNW,343,2.0,7.0,89,0.00,,,0.41,,2013-05-24 20:22:00,
2013-05-24 16:32:00,63.0,60.0,29.70,North,349,3.0,5.0,90,0.01,,,0.42,,2013-05-24 20:32:00,
2013-05-24 16:42:00,63.0,60.0,29.70,North,349,3.0,5.0,90,0.01,,,0.42,,2013-05-24 20:42:00,
2013-05-24 16:52:00,63.0,59.0,29.71,NNW,332,5.0,12.0,88,0.01,,,0.42,,2013-05-24 20:52:00,
2013-05-24 17:01:00,63.0,59.0,29.71,NW,309,3.0,5.0,87,0.01,,,0.42,,2013-05-24 21:01:00,
2013-05-24 17:11:00,63.0,59.0,29.71,NW,309,3.0,5.0,87,0.01,,,0.42,,2013-05-24 21:11:00,
2013-05-24 17:21:00,62.0,57.0,29.71,North,352,2.0,6.0,85,0.01,,,0.42,,2013-05-24 21:21:00,
2013-05-24 17:33:00,62.0,57.0,29.72,WNW,300,2.0,5.0,85,0.01,,,0.42,,2013-05-24 21:33:00,
2013-05-24 17:42:00,62.0,57.0,29.72,WNW,300,2.0,5.0,85,0.01,,,0.42,,2013-05-24 21:42:00,
2013-05-24 17:53:00,61.0,57.0,29.72,NW,316,2.0,2.0,88,0.00,,,0.42,,2013-05-24 21:53:00,
2013-05-24 18:03:00,61.0,58.0,29.71,NW,323,1.0,4.0,90,0.01,,,0.43,,2013-05-24 22:03:00,
2013-05-24 18:12:00,61.0,58.0,29.71,NW,323,1.0,4.0,90,0.01,,,0.43,,2013-05-24 22:12:00,
2013-05-24 18:22:00,60.0,57.0,29.72,North,358,2.0,7.0,91,0.02,,,0.44,,2013-05-24 22:22:00,
2013-05-24 18:33:00,60.0,57.0,29.72,NNW,340,1.0,5.0,90,0.02,,,0.44,,2013-05-24 22:33:00,
2013-05-24 18:42:00,60.0,57.0,29.72,NNW,340,1.0,5.0,90,0.02,,,0.44,,2013-05-24 22:42:00,
2013-05-24 18:52:00,59.0,56.0,29.73,North,353,1.0,2.0,91,0.02,,,0.44,,2013-05-24 22:52:00,
2013-05-24 19:02:00,59.0,56.0,29.75,SW,235,2.0,5.0,90,0.01,,,0.44,,2013-05-24 23:02:00,
2013-05-24 19:11:00,59.0,56.0,29.75,SW,235,2.0,5.0,90,0.01,,,0.44,,2013-05-24 23:11:00,
2013-05-24 19:22:00,58.0,56.0,29.75,NNW,333,1.0,3.0,92,0.08,,,0.52,,2013-05-24 23:22:00,
2013-05-24 19:32:00,57.0,55.0,29.75,North,353,1.0,3.0,93,0.14,,,0.58,,2013-05-24 23:32:00,
2013-05-24 19:42:00,57.0,55.0,29.75,North,353,1.0,3.0,93,0.14,,,0.58,,2013-05-24 23:42:00,
2013-05-24 19:52:00,56.0,54.0,29.77,NW,311,1.0,4.0,93,0.19,,,0.63,,2013-05-24 23:52:00,
2013-05-24 20:01:00,56.0,54.0,29.77,NW,316,1.0,2.0,94,0.20,,,0.64,,2013-05-25 00:01:00,
2013-05-24 20:12:00,56.0,54.0,29.77,NW,316,1.0,2.0,94,0.20,,,0.64,,2013-05-25 00:12:00,
2013-05-24 20:22:00,55.0,53.0,29.77,NNW,335,2.0,7.0,94,0.16,,,0.68,,2013-05-25 00:22:00,
2013-05-24 20:32:00,54.0,52.0,29.78,NW,305,1.0,4.0,94,0.10,,,0.69,,2013-05-25 00:32:00,
2013-05-24 20:42:00,54.0,52.0,29.78,NW,305,1.0,4.0,94,0.10,,,0.69,,2013-05-25 00:42:00,
2013-05-24 20:52:00,54.0,53.0,29.78,NW,309,1.0,5.0,95,0.07,,,0.70,,2013-05-25 00:52:00,
2013-05-24 21:01:00,54.0,53.0,29.79,NNW,341,2.0,4.0,95,0.09,,,0.73,,2013-05-25 01:01:00,
2013-05-24 21:11:00,54.0,53.0,29.79,NNW,341,2.0,4.0,95,0.09,,,0.73,,2013-05-25 01:11:00,
2013-05-24 21:22:00,53.0,52.0,29.80,North,354,2.0,6.0,95,0.08,,,0.76,,2013-05-25 01:22:00,
2013-05-24 21:32:00,53.0,52.0,29.79,WNW,294,3.0,7.0,95,0.09,,,0.78,,2013-05-25 01:32:00,
2013-05-24 21:42:00,53.0,52.0,29.79,WNW,294,3.0,7.0,95,0.09,,,0.78,,2013-05-25 01:42:00,
2013-05-24 21:52:00,53.0,52.0,29.80,North,349,2.0,6.0,96,0.08,,,0.79,,2013-05-25 01:52:00,
2013-05-24 22:02:00,53.0,52.0,29.80,North,349,3.0,7.0,96,0.08,,,0.80,,2013-05-25 02:02:00,
2013-05-24 22:12:00,53.0,52.0,29.80,North,349,3.0,7.0,96,0.08,,,0.80,,2013-05-25 02:12:00,
2013-05-24 22:21:00,53.0,52.0,29.80,North,349,2.0,8.0,96,0.04,,,0.80,,2013-05-25 02:21:00,
2013-05-24 22:32:00,53.0,52.0,29.80,North,8,3.0,4.0,96,0.01,,,0.80,,2013-05-25 02:32:00,
2013-05-24 22:42:00,53.0,52.0,29.80,North,8,3.0,4.0,96,0.01,,,0.80,,2013-05-25 02:42:00,
2013-05-24 22:52:00,53.0,52.0,29.80,NNW,330,3.0,6.0,96,0.01,,,0.80,,2013-05-25 02:52:00,
2013-05-24 23:02:00,53.0,52.0,29.80,North,356,2.0,7.0,96,0.00,,,0.80,,2013-05-25 03:02:00,
2013-05-24 23:11:00,53.0,52.0,29.80,North,356,2.0,7.0,96,0.00,,,0.80,,2013-05-25 03:11:00,
2013-05-24 23:21:00,53.0,52.0,29.80,NNW,339,3.0,5.0,96,0.01,,,0.81,,2013-05-25 03:21:00,
2013-05-24 23:32:00,52.0,51.0,29.81,North,353,4.0,8.0,96,0.01,,,0.77,,2013-05-25 03:32:00,
2013-05-24 23:43:00,52.0,51.0,29.81,North,353,4.0,8.0,96,0.01,,,0.77,,2013-05-25 03:43:00,
2013-05-24 23:53:00,52.0,51.0,29.80,North,357,3.0,4.0,96,0.01,,,0.77,,2013-05-25 03:53:00,